| time (UTC) | temp F | wind direction | speed MPH | gust MPH | rain 1hr in | rain 24hr in | rain mn in | humidity % | barometer mb |
| 20260903211857 | 66 | 230 | 12.0 | 0.0 | 0.00 | 0.00 | 0.00 | 68 | |
| 20260903203103 | 64 | 220 | 10.0 | 0.0 | 0.00 | 0.00 | 0.00 | 77 | 1019.0 |
| 20260903201857 | 64 | 210 | 12.0 | 0.0 | 0.00 | 0.00 | 0.00 | 72 | |
| 20260903193103 | 64 | 230 | 10.0 | 0.0 | 0.00 | 0.00 | 0.00 | 72 | 1019.0 |
| 20260903192056 | 66 | 240 | 12.0 | 0.0 | 0.00 | 0.00 | 0.00 | 63 | |
| 20260903190103 | 66 | 240 | 10.0 | 0.0 | 0.00 | 0.00 | 0.00 | 68 | 1019.0 |
| 20260903183104 | 66 | 250 | 15.0 | 0.0 | 0.00 | 0.00 | 0.00 | 68 | 1019.0 |
| 20260903181856 | 68 | 260 | 16.0 | 0.0 | 0.00 | 0.00 | 0.00 | 60 | |
| 20260903173103 | 70 | 260 | 16.0 | 0.0 | 0.00 | 0.00 | 0.00 | 56 | 1019.0 |
| 20260903171910 | 70 | 260 | 16.0 | 0.0 | 0.00 | 0.00 | 0.00 | 56 | |
| 20260903170103 | 70 | 250 | 17.0 | 0.0 | 0.00 | 0.00 | 0.00 | 56 | 1019.0 |
| 20260903163103 | 72 | 250 | 16.0 | 0.0 | 0.00 | 0.00 | 0.00 | 49 | 1018.0 |
| 20260903162211 | 73 | 240 | 14.0 | 0.0 | 0.00 | 0.00 | 0.00 | 46 | |
| 20260903153102 | 73 | 240 | 10.0 | 0.0 | 0.00 | 0.00 | 0.00 | 49 | 1018.0 |
| 20260903151856 | 73 | 250 | 12.0 | 0.0 | 0.00 | 0.00 | 0.00 | 43 | |
| 20260903143103 | 73 | 260 | 9.0 | 0.0 | 0.00 | 0.00 | 0.00 | 46 | 1018.0 |
| 20260903141856 | 73 | 250 | 9.0 | 0.0 | 0.00 | 0.00 | 0.00 | 43 | |
| 20260903133102 | 72 | 250 | 12.0 | 0.0 | 0.00 | 0.00 | 0.00 | 49 | 1019.0 |
| 20260903132058 | 73 | 240 | 14.0 | 0.0 | 0.00 | 0.00 | 0.00 | 43 | |
| 20260903123104 | 73 | 250 | 15.0 | 0.0 | 0.00 | 0.00 | 0.00 | 46 | 1019.0 |
| 20260903121856 | 73 | 230 | 14.0 | 0.0 | 0.00 | 0.00 | 0.00 | 43 | |
| 20260903113102 | 72 | 240 | 9.0 | 0.0 | 0.00 | 0.00 | 0.00 | 49 | 1019.0 |
| 20260903111851 | 72 | 230 | 12.0 | 0.0 | 0.00 | 0.00 | 0.00 | 46 | |
| 20260903103103 | 72 | 280 | 13.0 | 0.0 | 0.00 | 0.00 | 0.00 | 43 | 1020.0 |
| 20260903102254 | 72 | 260 | 14.0 | 0.0 | 0.00 | 0.00 | 0.00 | 40 | |
| 20260903100104 | 72 | 270 | 9.0 | 0.0 | 0.00 | 0.00 | 0.00 | 43 | 1020.0 |
| 20260903093102 | 70 | 250 | 10.0 | 0.0 | 0.00 | 0.00 | 0.00 | 49 | 1020.0 |
| 20260903091853 | 70 | 240 | 7.0 | 0.0 | 0.00 | 0.00 | 0.00 | 49 | |
| 20260903083103 | 68 | 230 | 6.0 | 0.0 | 0.00 | 0.00 | 0.00 | 60 | 1020.0 |
| 20260903081851 | 68 | 240 | 7.0 | 0.0 | 0.00 | 0.00 | 0.00 | 56 | |
| 20260903080211 | 66 | 230 | 5.0 | 0.0 | 0.00 | 0.00 | 0.00 | 63 | 1021.0 |
| 20260903073103 | 64 | 230 | 5.0 | 0.0 | 0.00 | 0.00 | 0.00 | 72 | 1021.0 |
| 20260903072054 | 64 | 250 | 7.0 | 0.0 | 0.00 | 0.00 | 0.00 | 67 | |
| 20260903070210 | 63 | 220 | 6.0 | 0.0 | 0.00 | 0.00 | 0.00 | 77 | 1021.0 |
| 20260903063102 | 63 | 240 | 3.0 | 0.0 | 0.00 | 0.00 | 0.00 | 77 | 1020.0 |
| 20260903061851 | 61 | 330 | 2.0 | 0.0 | 0.00 | 0.00 | 0.00 | 82 | |
| 20260903053103 | 59 | 220 | 1.0 | 0.0 | 0.00 | 0.00 | 0.00 | 87 | 1020.0 |
| 20260903051851 | 59 | 210 | 2.0 | 0.0 | 0.00 | 0.00 | 0.00 | 87 | |
| 20260903043102 | 57 | 220 | 5.0 | 0.0 | 0.00 | 0.00 | 0.00 | 93 | 1020.0 |
| 20260903042254 | 59 | 220 | 5.0 | 0.0 | 0.00 | 0.00 | 0.00 | 87 | |
| 20260903040103 | 57 | 220 | 5.0 | 0.0 | 0.00 | 0.00 | 0.00 | 93 | 1020.0 |
| 20260903033102 | 59 | 210 | 3.0 | 0.0 | 0.00 | 0.00 | 0.00 | 87 | 1020.0 |
| 20260903031852 | 59 | 220 | 2.0 | 0.0 | 0.00 | 0.00 | 0.00 | 82 | |
| 20260903030103 | 57 | 220 | 3.0 | 0.0 | 0.00 | 0.00 | 0.00 | 93 | 1020.0 |
| 20260903023102 | 57 | 200 | 5.0 | 0.0 | 0.00 | 0.00 | 0.00 | 93 | 1020.0 |
| 20260903021851 | 59 | 220 | 5.0 | 0.0 | 0.00 | 0.00 | 0.00 | 82 | |
| 20260903020103 | 57 | 220 | 5.0 | 0.0 | 0.00 | 0.00 | 0.00 | 87 | 1020.0 |
| 20260903013103 | 57 | 230 | 5.0 | 0.0 | 0.00 | 0.00 | 0.00 | 87 | 1020.0 |
| 20260903012052 | 61 | 270 | 5.0 | 0.0 | 0.00 | 0.00 | 0.00 | 72 | |
| 20260903003102 | 59 | 250 | 6.0 | 0.0 | 0.00 | 0.00 | 0.00 | 82 | 1020.0 |
| 20260903001854 | 61 | 240 | 7.0 | 0.0 | 0.00 | 0.00 | 0.00 | 77 | |
| 20260903000104 | 59 | 250 | 6.0 | 0.0 | 0.00 | 0.00 | 0.00 | 82 | 1020.0 |
| 20260902233102 | 59 | 210 | 5.0 | 0.0 | 0.00 | 0.00 | 0.00 | 82 | 1020.0 |
| 20260902231851 | 61 | 190 | 5.0 | 0.0 | 0.00 | 0.00 | 0.00 | 77 | |
| 20260902230104 | 61 | 190 | 5.0 | 0.0 | 0.00 | 0.00 | 0.00 | 82 | 1020.0 |
| 20260902223103 | 61 | 200 | 3.0 | 0.0 | 0.00 | 0.00 | 0.00 | 77 | 1020.0 |
| 20260902222253 | 61 | 160 | 5.0 | 0.0 | 0.00 | 0.00 | 0.00 | 77 | |
| 20260902213102 | 63 | 190 | 6.0 | 0.0 | 0.00 | 0.00 | 0.00 | 77 | 1020.0 |